Regional Weather Roundup
Issued by NWS

Home | Current Version | Previous Version | Text Only | Print | Product List | Glossary On
Versions: 1 2 3 4 5 6 7 8 9 10 11 12 13 14 15 16 17 18 19 20 21 22 23 24 25 26 27 28 29 30 31 32 33 34 35 36 37 38 39 40 41 42 43 44 45 46 47 48 49 50
000
ASUS43 KIND 301509
RWRIN

WEATHER ROUNDUP FOR INDIANA
NATIONAL WEATHER SERVICE INDIANAPOLIS IN
1100 AM EDT TUE JUN 30 2015

NOTE: "FAIR" INDICATES FEW OR NO CLOUDS BELOW 12,000 FEET WITH NO
SIGNIFICANT WEATHER AND/OR OBSTRUCTIONS TO VISIBILITY.

* - STATION DOES NOT REPORT WEATHER SUCH AS PRECIPITATION OR FOG.

+ - STATION NOT QUALITY CONTROLLED BY THE NATIONAL WEATHER SERVICE.
    USE DATA WITH CAUTION...ESPECIALLY DEWPOINT AND RELATIVE
    HUMIDITY OBSERVATIONS.

INZ001>003-010>013-019-020-301600-
NORTHWEST INDIANA

CITY           SKY/WX    TMP DP  RH WIND       PRES   REMARKS
GARY /AIRPORT/ SUNNY     72  63  73 W9        29.82F
KNOX *+        CLOUDY    68  63  83 W8        29.81F
LA PORTE +     PTSUNNY   70  66  87 W7        29.82S
MICHIGAN CITY+ CLOUDY    66  64  94 W6        29.82S
MONTICELLO +   SUNNY     71  66  85 W8        29.82S
RENSSELAER +   SUNNY     70  64  83 W8        29.83F
VALPARAISO     PTSUNNY   70  63  78 NW8       29.82F

$$

LMZ046-743>745-301600-
SOUTHERN LAKE MICHIGAN

STATION/POSITION TIME  TEMP    WIND        PRES    WAVE
                       AIR SEA DIR/SP/G            HT
                 (UTC) (F)     (DEG/KT/KT) (MB)    (FT)
BURNS HARBOR     1500   66     280/  5/  8 1010.2F
MICHIGAN CITY    1500   63     250/ 10/ 12   N/A
5NW MICH CITY    1500   64 65  290/  8/ 10   N/A     1

$$

INZ004-005-014>016-021>024-301600-
NORTH CENTRAL INDIANA

CITY           SKY/WX    TMP DP  RH WIND       PRES   REMARKS
ELKHART        CLOUDY    66  64  94 CALM      29.81F FOG
GOSHEN         CLOUDY    65  63  93 S6        29.81S
LOGANSPORT +   MOSUNNY   70  61  73 W7        29.83F
PERU/GRISSOM   PTSUNNY   70  65  84 W9        29.82F
ROCHESTER +    PTSUNNY   72  64  78 W8        29.83R
SOUTH BEND     CLOUDY    68  64  87 W7        29.81S FOG
WARSAW +         N/A     64  64 100 W5        29.82S

$$

INZ006>009-017-018-025>027-301600-
NORTHEAST INDIANA

CITY           SKY/WX    TMP DP  RH WIND       PRES   REMARKS
ANGOLA *+      CLOUDY    64  55  72 SW6       29.82S
AUBURN +       RAIN      63  61  94 CALM      29.83F
FORT WAYNE     CLOUDY    65  63  93 SW6       29.84R
HUNTINGTON +   CLOUDY    65  63  94 W3        29.83S

$$

INZ028-029-035-036-043>045-051>053-301600-
WEST CENTRAL INDIANA

CITY           SKY/WX    TMP DP  RH WIND       PRES   REMARKS
CRAWFORDSVL +  MOSUNNY   70  62  76 W7        29.86S
GREENCASTLE +  MOSUNNY   72  61  68 W3        29.86F
LAFAYETTE      MOSUNNY   70  65  84 SW9       29.83F
TERRE HAUTE    PTSUNNY   74  67  78 W6        29.86S

$$

INZ030>032-037>040-046>048-054>057-064-065-301600-
CENTRAL INDIANA

CITY           SKY/WX    TMP DP  RH WIND       PRES   REMARKS
ANDERSON       CLOUDY    68  63  83 CALM      29.86S
CP ATTERBURY + MOSUNNY   73  66  78 W6        29.87F
FRANKFORT +    MOSUNNY   71  66  83 SW8       29.86F
GREENWOOD *+   PTSUNNY   68  64  88 W5        29.87S
INDIANAPOLIS   CLOUDY    69  64  84 W7        29.85S
-EAGLE CREEK   PTSUNNY   69  64  84 W7        29.84F
KOKOMO *+      PTSUNNY   70  64  83 W13       29.83F
MARION +       CLOUDY    65  63  92 W9        29.84S
MT COMFORT *+  CLOUDY    68 N/A N/A W6        29.86S
SHELBYVILLE    LGT RAIN  72  66  81 W7        29.85F
ZIONSVILLE +   PTSUNNY   70  64  79 W9        29.86S

$$

INZ033-034-041-042-049-050-058-059-301600-
EAST CENTRAL INDIANA

CITY           SKY/WX    TMP DP  RH WIND       PRES   REMARKS
MUNCIE         CLOUDY    69  63  81 SW8       29.84F

$$

INZ060-061-067>069-081>083-085>088-301600-
SOUTHWEST INDIANA

CITY           SKY/WX    TMP DP  RH WIND       PRES   REMARKS
EVANSVILLE     SUNNY     77  67  71 SW7       29.90S
HUNTINGBURG *+ MOSUNNY   75  66  73 W7        29.90S
WASHINGTON +   MOSUNNY   76  66  71 W6        29.88R

$$

INZ062-063-066-070>080-084-089>092-301600-
SOUTH CENTRAL AND SOUTHEAST INDIANA

CITY           SKY/WX    TMP DP  RH WIND       PRES   REMARKS
BLOOMINGTON    MOSUNNY   75  68  78 W7        29.87S
MADISON *+     PTSUNNY   75  64  69 SW7       29.91S
NORTH VERNON + MOSUNNY   75  66  73 S6        29.89F
SEYMOUR +      SUNNY     77  68  73 SW6       29.88S

$$




USA.gov is the U.S. government's official web portal to all federal, state and local government web resources and services.